When you browse on this site, cookies collect data to enhance your experience and personalize the content and advertising you see.
Visit our Privacy Policy to learn more. By continuing to use the site, you agree to this use of cookies and data.
  • In Hungary
  • List of Countries
  • For 7 days
  • Water Temperature
  • Satellite Maps
  • Weather Map
  • News
  • Weather Widgets
  • user-avatar
    Login

    Hourly Weather Calvia

    Today, 18 June, Tuesday

    Time Temperature Precipitation Wind Pressure Humidity
    00:00 +20°C° 0 mm 1 mps 748 mmHg 67%
    01:00 +20°C° 0 mm 1 mps 747 mmHg 65%
    02:00 +20°C° 0 mm 1 mps 747 mmHg 64%
    03:00 +20°C° 0 mm 1 mps 746 mmHg 62%
    04:00 +21°C° 0 mm 1 mps 747 mmHg 60%
    05:00 +21°C° 0 mm 1 mps 747 mmHg 57%
    06:00 +21°C° 0 mm 2 mps 747 mmHg 54%
    07:00 +23°C° 0 mm 2 mps 747 mmHg 50%
    08:00 +25°C° 0 mm 3 mps 747 mmHg 45%
    09:00 +26°C° 0 mm 3 mps 747 mmHg 41%
    10:00 +26°C° 0 mm 3 mps 747 mmHg 41%
    11:00 +27°C° 0 mm 4 mps 747 mmHg 41%
    12:00 +27°C° 0 mm 4 mps 747 mmHg 41%
    13:00 +27°C° 0 mm 4 mps 747 mmHg 41%
    14:00 +27°C° 0 mm 4 mps 747 mmHg 41%
    15:00 +27°C° 0 mm 4 mps 747 mmHg 41%
    16:00 +26°C° 0 mm 3 mps 746 mmHg 43%
    17:00 +26°C° 0 mm 3 mps 746 mmHg 45%
    18:00 +25°C° 0 mm 3 mps 746 mmHg 47%
    19:00 +24°C° 0 mm 3 mps 746 mmHg 53%
    20:00 +21°C° 0 mm 3 mps 746 mmHg 59%
    21:00 +20°C° 0 mm 4 mps 746 mmHg 65%
    22:00 +20°C° 0 mm 3 mps 746 mmHg 66%
    23:00 +20°C° 0 mm 3 mps 746 mmHg 68%

    Tomorrow, 19 June, Wednesday

    Time Temperature Precipitation Wind Pressure Humidity
    00:00 +19°C° 0 mm 3 mps 746 mmHg 69%
    01:00 +19°C° 0 mm 2 mps 745 mmHg 69%
    02:00 +19°C° 0 mm 2 mps 745 mmHg 68%
    03:00 +19°C° 0 mm 2 mps 745 mmHg 68%
    04:00 +19°C° 0 mm 2 mps 745 mmHg 67%
    05:00 +20°C° 0 mm 2 mps 745 mmHg 66%
    06:00 +21°C° 0 mm 2 mps 745 mmHg 65%
    07:00 +24°C° 0 mm 2 mps 746 mmHg 58%
    08:00 +26°C° 0 mm 3 mps 746 mmHg 51%
    09:00 +27°C° 0 mm 3 mps 746 mmHg 44%
    10:00 +27°C° 0 mm 3 mps 746 mmHg 46%
    11:00 +27°C° 0 mm 4 mps 746 mmHg 48%
    12:00 +27°C° 0 mm 4 mps 746 mmHg 50%
    13:00 +27°C° 0 mm 4 mps 746 mmHg 52%
    14:00 +27°C° 0 mm 4 mps 745 mmHg 53%
    15:00 +27°C° 0 mm 4 mps 745 mmHg 55%
    16:00 +26°C° 0 mm 3 mps 745 mmHg 56%
    17:00 +26°C° 0 mm 3 mps 745 mmHg 58%
    18:00 +25°C° 0 mm 3 mps 744 mmHg 59%
    19:00 +24°C° 0 mm 3 mps 744 mmHg 64%
    20:00 +22°C° 0 mm 3 mps 744 mmHg 70%
    21:00 +21°C° 0 mm 3 mps 744 mmHg 75%
    22:00 +20°C° 0 mm 3 mps 744 mmHg 78%
    23:00 +20°C° 0 mm 3 mps 744 mmHg 81%

    Day after tomorrow, 20 June, Thursday

    Time Temperature Precipitation Wind Pressure Humidity
    00:00 +20°C° 0 mm 2 mps 744 mmHg 85%
    01:00 +20°C° 0 mm 2 mps 744 mmHg 84%
    02:00 +20°C° 0 mm 2 mps 744 mmHg 83%
    03:00 +21°C° 0 mm 1 mps 743 mmHg 82%
    04:00 +22°C° 0 mm 1 mps 744 mmHg 74%
    05:00 +23°C° 0 mm 1 mps 744 mmHg 67%
    06:00 +24°C° 0 mm 2 mps 744 mmHg 59%
    07:00 +24°C° 0 mm 2 mps 744 mmHg 58%
    08:00 +25°C° 0 mm 3 mps 744 mmHg 57%
    09:00 +26°C° 0 mm 3 mps 745 mmHg 55%
    10:00 +27°C° 0 mm 3 mps 745 mmHg 55%
    11:00 +27°C° 0 mm 3 mps 745 mmHg 55%
    12:00 +27°C° 0 mm 3 mps 745 mmHg 55%
    13:00 +28°C° 0 mm 3 mps 745 mmHg 54%
    14:00 +28°C° 0 mm 3 mps 745 mmHg 53%
    15:00 +28°C° 0 mm 3 mps 745 mmHg 53%
    16:00 +27°C° 0 mm 3 mps 745 mmHg 55%
    17:00 +27°C° 0 mm 2 mps 745 mmHg 57%
    18:00 +26°C° 0 mm 2 mps 745 mmHg 60%
    19:00 +25°C° 0 mm 2 mps 745 mmHg 64%
    20:00 +24°C° 0 mm 2 mps 745 mmHg 69%
    21:00 +22°C° 0 mm 1 mps 745 mmHg 73%
    22:00 +22°C° 0 mm 1 mps 745 mmHg 76%
    23:00 +22°C° 0 mm 1 mps 745 mmHg 78%

    21 June, Friday

    Time Temperature Precipitation Wind Pressure Humidity
    00:00 +20°C° 0 mm 2 mps 746 mmHg 81%
    01:00 +20°C° 0 mm 2 mps 745 mmHg 80%
    02:00 +20°C° 0 mm 2 mps 745 mmHg 78%
    03:00 +20°C° 0 mm 2 mps 745 mmHg 77%
    04:00 +20°C° 0 mm 3 mps 745 mmHg 76%
    05:00 +21°C° 0 mm 3 mps 746 mmHg 75%
    06:00 +21°C° 0 mm 4 mps 746 mmHg 73%
    07:00 +23°C° 0 mm 4 mps 746 mmHg 67%
    08:00 +26°C° 0 mm 4 mps 746 mmHg 60%
    09:00 +27°C° 0 mm 5 mps 747 mmHg 54%
    10:00 +28°C° 0 mm 5 mps 747 mmHg 53%
    11:00 +28°C° 0 mm 5 mps 747 mmHg 52%
    12:00 +28°C° 0 mm 5 mps 747 mmHg 52%
    13:00 +28°C° 0 mm 4 mps 746 mmHg 53%
    14:00 +28°C° 0 mm 3 mps 746 mmHg 55%
    15:00 +28°C° 0 mm 3 mps 746 mmHg 56%
    16:00 +27°C° 0 mm 2 mps 746 mmHg 60%
    17:00 +26°C° 0 mm 2 mps 746 mmHg 64%
    18:00 +25°C° 0 mm 2 mps 746 mmHg 67%
    19:00 +24°C° 0 mm 2 mps 746 mmHg 73%
    20:00 +23°C° 0 mm 2 mps 746 mmHg 78%
    21:00 +21°C° 0 mm 2 mps 747 mmHg 84%
    22:00 +21°C° 0 mm 2 mps 746 mmHg 84%
    23:00 +21°C° 0 mm 1 mps 746 mmHg 84%

    22 June, Saturday

    Time Temperature Precipitation Wind Pressure Humidity
    00:00 +21°C° 0 mm 1 mps 746 mmHg 83%
    01:00 +21°C° 0 mm 1 mps 746 mmHg 83%
    02:00 +21°C° 0 mm 1 mps 746 mmHg 82%
    03:00 +20°C° 0 mm 1 mps 745 mmHg 81%
    04:00 +21°C° 0 mm 1 mps 746 mmHg 77%
    05:00 +21°C° 0 mm 2 mps 746 mmHg 73%
    06:00 +23°C° 0 mm 2 mps 746 mmHg 69%
    07:00 +24°C° 0 mm 2 mps 747 mmHg 64%
    08:00 +26°C° 0 mm 2 mps 747 mmHg 58%
    09:00 +27°C° 0 mm 3 mps 747 mmHg 53%
    10:00 +28°C° 0 mm 3 mps 747 mmHg 53%
    11:00 +28°C° 0 mm 3 mps 747 mmHg 54%
    12:00 +28°C° 0 mm 3 mps 747 mmHg 54%
    13:00 +28°C° 0 mm 3 mps 747 mmHg 54%
    14:00 +28°C° 0 mm 3 mps 746 mmHg 54%
    15:00 +28°C° 0 mm 2 mps 746 mmHg 54%
    16:00 +28°C° 0 mm 3 mps 746 mmHg 55%
    17:00 +27°C° 0 mm 3 mps 745 mmHg 57%
    18:00 +27°C° 0 mm 3 mps 745 mmHg 58%
    19:00 +25°C° 0 mm 2 mps 745 mmHg 64%
    20:00 +24°C° 0 mm 2 mps 746 mmHg 69%
    21:00 +23°C° 0 mm 2 mps 746 mmHg 75%
    22:00 +23°C° 0 mm 2 mps 746 mmHg 74%
    23:00 +21°C° 0 mm 2 mps 746 mmHg 74%

    23 June, Sunday

    Time Temperature Precipitation Wind Pressure Humidity
    00:00 +21°C° 0 mm 2 mps 745 mmHg 73%
    01:00 +21°C° 0 mm 2 mps 745 mmHg 72%
    02:00 +21°C° 0 mm 2 mps 745 mmHg 72%
    03:00 +22°C° 0 mm 1 mps 744 mmHg 72%
    04:00 +22°C° 0 mm 1 mps 745 mmHg 70%
    05:00 +23°C° 0 mm 1 mps 745 mmHg 68%
    06:00 +24°C° 0 mm 1 mps 745 mmHg 66%
    07:00 +25°C° 0 mm 1 mps 745 mmHg 60%
    08:00 +26°C° 0 mm 1 mps 746 mmHg 54%
    09:00 +28°C° 0 mm 1 mps 746 mmHg 47%
    10:00 +28°C° 0 mm 1 mps 746 mmHg 48%
    11:00 +29°C° 0 mm 2 mps 746 mmHg 48%
    12:00 +29°C° 0 mm 2 mps 746 mmHg 49%
    13:00 +29°C° 0 mm 2 mps 746 mmHg 49%
    14:00 +29°C° 0 mm 2 mps 745 mmHg 50%
    15:00 +29°C° 0 mm 2 mps 745 mmHg 50%
    16:00 +29°C° 0 mm 2 mps 744 mmHg 51%
    17:00 +28°C° 0 mm 2 mps 744 mmHg 53%
    18:00 +28°C° 0 mm 2 mps 744 mmHg 54%
    19:00 +27°C° 0 mm 2 mps 744 mmHg 56%
    20:00 +26°C° 0 mm 3 mps 745 mmHg 59%
    21:00 +25°C° 0 mm 3 mps 745 mmHg 61%
    22:00 +25°C° 0 mm 3 mps 744 mmHg 61%
    23:00 +24°C° 0 mm 3 mps 744 mmHg 61%
    Show more